Regional Weather Roundup
Issued by NWS

Home | Current Version | Previous Version | Text Only | Print | Product List | Glossary Off
Versions: 1 2 3 4 5 6 7 8 9 10 11 12 13 14 15 16 17 18 19 20 21 22 23 24 25 26 27 28 29 30 31 32 33 34 35 36 37 38 39 40 41 42 43 44 45 46 47 48 49 50

000
ASUS43 KIND 280509
RWRIN

WEATHER ROUNDUP FOR INDIANA
NATIONAL WEATHER SERVICE INDIANAPOLIS IN
1200 AM EST TUE FEB 28 2017

NOTE: "FAIR" INDICATES FEW OR NO CLOUDS BELOW 12,000 FEET WITH NO
SIGNIFICANT WEATHER AND/OR OBSTRUCTIONS TO VISIBILITY.

* - STATION DOES NOT REPORT WEATHER SUCH AS PRECIPITATION OR FOG.

+ - STATION NOT QUALITY CONTROLLED BY THE NATIONAL WEATHER SERVICE.
    USE DATA WITH CAUTION...ESPECIALLY DEWPOINT AND RELATIVE
    HUMIDITY OBSERVATIONS.

INZ001>003-010>013-019-020-280600-
NORTHWEST INDIANA

CITY           SKY/WX    TMP DP  RH WIND       PRES   REMARKS
GARY /AIRPORT/ CLOUDY    48  38  69 SE12      30.06S
KNOX *+        CLOUDY    43  27  52 SE12      30.08F
LA PORTE +     CLOUDY    43  40  86 SE8       30.08F
MICHIGAN CITY+ CLOUDY    45  37  76 S5        30.07F
MONTICELLO +   CLOUDY    45  40  85 S9        30.09R
RENSSELAER +   CLOUDY    43  41  93 SE8       30.09R
VALPARAISO     CLOUDY    46  40  79 S12       30.08S

$$

LMZ046-743>745-280600-
SOUTHERN LAKE MICHIGAN

STATION/POSITION TIME  TEMP    WIND        PRES    WAVE
                       AIR SEA DIR/SP/G            HT
                 (UTC) (F)     (DEG/KT/KT) (MB)    (FT)
BURNS HARBOR     0440   47     170/ 11/ 17 1018.6S
MICHIGAN CITY    0440   45     130/ 12/ 14   N/A

$$

INZ004-005-014>016-021>024-280600-
NORTH CENTRAL INDIANA

CITY           SKY/WX    TMP DP  RH WIND       PRES   REMARKS
GOSHEN         CLOUDY    43  37  79 SE10      30.11F
LOGANSPORT +   CLOUDY    43  39  87 SE8       30.11S
PERU/GRISSOM   CLOUDY    42  42 100 SE7       30.10F
ROCHESTER +    CLOUDY    45  41  87 SE8       30.10F
SOUTH BEND     CLOUDY    43  38  82 SE10      30.10F
WARSAW +       CLOUDY    43  39  87 SE5       30.12F

$$

INZ006>009-017-018-025>027-280600-
NORTHEAST INDIANA

CITY           SKY/WX    TMP DP  RH WIND       PRES   REMARKS
ANGOLA *+      PTCLDY    39  39 100 SE6       30.14F
AUBURN +       CLOUDY    41  37  87 SE5       30.16F
FORT WAYNE     CLOUDY    40  38  93 SE9       30.14F
HUNTINGTON +   CLOUDY    41  40  96 SE5       30.13F
KENDALLVILLE + CLOUDY    40  39  93 S9        30.14F

$$

INZ028-029-035-036-043>045-051>053-280600-
WEST CENTRAL INDIANA

CITY           SKY/WX    TMP DP  RH WIND       PRES   REMARKS
GREENCASTLE +  MOCLDY    43  41  93 SE7       30.09F
LAFAYETTE      CLOUDY    45  42  89 SE5       30.09S
TERRE HAUTE    CLOUDY    48  41  76 SE8       30.07F

$$

INZ030>032-037>040-046>048-054>057-064-065-280600-
CENTRAL INDIANA

CITY           SKY/WX    TMP DP  RH WIND       PRES   REMARKS
CP ATTERBURY + CLOUDY    43  39  87 SE5       30.13F
FISHERS *+     CLOUDY    43  43 100 SE8       30.12
FRANKFORT +    CLOUDY    46  43  90 SE12      30.11F
GREENWOOD *+   CLOUDY    45  41  88 SE7       30.13S
INDIANAPOLIS   CLOUDY    46  40  79 SE14      30.11F
-EAGLE CREEK   CLOUDY    46  40  79 SE7       30.11F
KOKOMO +       CLOUDY    42  40  92 SE9       30.12F
MARION +       MOCLDY    42  40  92 SE9       30.13F
MT COMFORT *+  CLOUDY    43  39  87 SE8       30.12F
SHELBYVILLE    CLOUDY    46  39  76 SE12      30.11F
ZIONSVILLE +   CLOUDY    43  40  90 SE9       30.11S

$$

INZ033-034-041-042-049-050-058-059-280600-
EAST CENTRAL INDIANA

CITY           SKY/WX    TMP DP  RH WIND       PRES   REMARKS
MUNCIE         CLOUDY    45  40  82 SE8       30.13F

$$

INZ060-061-067>069-081>083-085>088-280600-
SOUTHWEST INDIANA

CITY           SKY/WX    TMP DP  RH WIND       PRES   REMARKS
EVANSVILLE     CLOUDY    52  42  69 SE8       30.09F
HUNTINGBURG *+ CLOUDY    52  43  71 S9        30.11F
WASHINGTON +   PTCLDY    51  40  67 S16       30.08F

$$

INZ062-063-066-070>080-084-089>092-280600-
SOUTH CENTRAL AND SOUTHEAST INDIANA

CITY           SKY/WX    TMP DP  RH WIND       PRES   REMARKS
BEDFORD +      PTCLDY    46  39  76 SE7       30.11F
BLOOMINGTON    CLOUDY    46  40  79 SE8       30.09F
MADISON *+     PTCLDY    45  39  81 SE3       30.17F
NORTH VERNON + MOCLDY    46  43  87 SE8       30.15F
SEYMOUR +      CLOUDY    46  41  81 SE8       30.13F

$$





USA.gov is the U.S. government's official web portal to all federal, state and local government web resources and services.